Ann Arbor, MI

3:18 PM EST on December 15, 2017 (GMT -0500)
Ann Arbor Municipal

Weather History for KARB - March, 2012

Change the Weather History Date:

Sunday, March 11, 2012

  Actual Average Record
Temperature  
Mean Temperature 47 °F -  
Max Temperature 64 °F 38 °F 64 °F (2012)
Min Temperature 30 °F 21 °F 7 °F (2003)
Degree Days  
Heating Degree Days 18    
Moisture  
Dew Point 29 °F    
Average Humidity 51    
Maximum Humidity 79    
Minimum Humidity 24    
Precipitation  
Precipitation 0.00 in - - ()
Sea Level Pressure  
Sea Level Pressure 30.27 in    
Wind  
Wind Speed 7 mph (SW)    
Max Wind Speed 13 mph    
Max Gust Speed 20 mph    
Visibility 10 miles    
Events      
Averages and records for this station are not official NWS values.
T = Trace of Precipitation, MM = Missing Value Source: NWS Daily Summary

Daily Weather History Graph

Daily Weather History Graph

Search for Another Location

Airport or City:

Trip Planner

Search our weather history database for the weather conditions in past years. The results will help you decide how hot, cold, wet, or windy it might be!

Date:

Astronomy

Mar. 11, 2012 Rise Set
Actual Time 7:52 AM EDT 7:37 PM EDT
Civil Twilight 7:24 AM EDT 8:05 PM EDT
Nautical Twilight 6:52 AM EDT 8:37 PM EDT
Astronomical Twilight 6:19 AM EDT 9:10 PM EDT
Moon No Moon Rise 9:22 AM EDT (3/11)
Length of Visible Light 12h 40m
Length of Day
11h 44m
Waning Gibbous, 85% of the Moon is Illuminated
Mar 11
Waning Gibbous
Mar 14
Last Quarter
Mar 22
New
Mar 30
First Quarter
Apr 6
Full

Hourly Weather History & Observations

Time (EDT) Temp. Windchill Dew Point Humidity Pressure Visibility Wind Dir Wind Speed Gust Speed Precip Events Conditions
12:53 AM 41.0 °F 35.2 °F 26.1 °F 55% 30.29 in 10.0 mi SW 9.2 mph - N/A   Clear
1:53 AM 39.9 °F 34.5 °F 26.1 °F 58% 30.30 in 10.0 mi SW 8.1 mph - N/A   Clear
3:53 AM 37.9 °F 32.1 °F 26.1 °F 62% 30.30 in 10.0 mi SSW 8.1 mph - N/A   Clear
4:53 AM 34.0 °F 28.0 °F 26.1 °F 73% 30.30 in 10.0 mi SSW 6.9 mph - N/A   Clear
5:53 AM 33.1 °F 30.0 °F 26.1 °F 75% 30.31 in 10.0 mi SSW 3.5 mph - N/A   Clear
6:53 AM 30.9 °F 26.2 °F 25.0 °F 79% 30.32 in 10.0 mi SSW 4.6 mph - N/A   Clear
8:53 AM 34.0 °F 28.8 °F 27.0 °F 75% 30.34 in 10.0 mi SSW 5.8 mph - N/A   Clear
9:53 AM 42.1 °F 39.2 °F 28.0 °F 58% 30.34 in 10.0 mi SW 4.6 mph - N/A   Clear
10:53 AM 48.9 °F - 28.0 °F 44% 30.34 in 10.0 mi SW 10.4 mph - N/A   Clear
11:53 AM 55.0 °F - 28.9 °F 37% 30.33 in 10.0 mi SW 9.2 mph - N/A   Clear
12:53 PM 60.1 °F - 30.9 °F 33% 30.32 in 10.0 mi SW 5.8 mph - N/A   Clear
1:53 PM 63.0 °F - 28.9 °F 28% 30.30 in 10.0 mi WSW 10.4 mph - N/A   Clear
2:53 PM 64.0 °F - 30.0 °F 28% 30.27 in 10.0 mi SSW 9.2 mph 18.4 mph N/A   Clear
3:53 PM 64.0 °F - 26.1 °F 24% 30.25 in 10.0 mi SW 12.7 mph - N/A   Clear
4:53 PM 64.0 °F - 28.0 °F 26% 30.23 in 10.0 mi SSW 10.4 mph - N/A   Clear
5:53 PM 63.0 °F - 28.9 °F 28% 30.23 in 10.0 mi SSW 11.5 mph 19.6 mph N/A   Clear
6:53 PM 61.0 °F - 28.9 °F 30% 30.22 in 10.0 mi SSW 6.9 mph - N/A   Clear
7:53 PM 57.0 °F - 28.9 °F 34% 30.23 in 10.0 mi SSW 4.6 mph - N/A   Clear
8:53 PM 54.0 °F - 30.9 °F 41% 30.23 in 10.0 mi Calm Calm - N/A   Clear
9:53 PM 46.0 °F - 34.0 °F 63% 30.23 in 10.0 mi Calm Calm - N/A   Clear
10:53 PM 43.0 °F - 34.0 °F 71% 30.22 in 10.0 mi Calm Calm - N/A   Clear
11:53 PM 41.0 °F - 32.0 °F 70% 30.22 in 10.0 mi Calm Calm - N/A   Clear
12:53 AM 41.0 °F - 34.0 °F 76% 30.20 in 10.0 mi Calm Calm - N/A   Clear